Volver al catálogo

SL-12 R/B

AUX MOTOR

ActivoHEO
NORAD 22066·ROCKET BODY·🇷🇺 Russia

Lanzado Jul 30, 1992 desde Baikonur Cosmodrome

Loading…

Próximos Pases (próximas 24 horas)

TLE

ActualizadoSource: Space-Track

Época: Sep 14, 2026, 01:27 UTC

1 22066U 92047G   26257.06082071  .00000222  00000-0  45396-3 0  9990
2 22066  64.7239  85.5630 5643804 152.8819 253.7334  4.38208108529760

Sigue SL-12 R/B en tiempo real con AllMySat

Download on the App Store